Home > Weather > Bridgetown > Past weeks

Flag for Barbados Past Weather in Bridgetown, Barbados — Yesterday and Last 2 Weeks

Now
81 °F

Passing clouds.


Feels Like: 86 °F
Forecast: 81 / 87 °F
Wind: 16 mph from East

Location: Grantley Adams

Current Time: Jul 27, 2016 at 1:54:46 AM

Latest Report: Jul 27, 2016 at 1:00 AM


Visibility: N/A

Pressure: 29.95 "Hg

Humidity: 84%

Dew Point: 75 °F

Location of BridgetownLocation

Past Weather in Bridgetown — Graph

°F

Bridgetown Temperature Yesterday

Maximum temperature yesterday: 86 °F (at 10:00 AM)
Minimum temperature yesterday: 77 °F (at 6:00 AM)
Average temperature yesterday: 82 °F

High & Low Weather Summary for the Past Weeks

 TemperatureHumidityPressure
High88 °F (Jul 12, 2:00 PM)94% (Jul 14, 7:00 PM)30.01 "Hg (Jul 14, 7:00 PM)
Low77 °F (Jul 18, 10:00 PM)59% (Jul 18, 1:00 PM)29.86 "Hg (Jul 15, 3:00 AM)
Average82 °F77%29.94 "Hg
* Reported Jul 12 12:00 AM — Jul 27 12:00 AM, Bridgetown, Weather by CustomWeather, © 2016

Note: Actual official high and low records may vary slightly from our data, if they occured in-between our weather recording intervals... More about our weather records

Advertising

Bridgetown Weather History for the Previous 24 Hours

Scroll right to see more
 ConditionsComfort  
Time TempWeatherWind HumidityBarometerVisibility
12:00 AM
Wed, Jul 27
81 °FPassing clouds.15 mph84%29.95 "HgN/A
11:00 PM
Tue, Jul 26
81 °FClear.22 mph89%29.95 "HgN/A
10:00 PM82 °FPassing clouds.16 mph84%29.95 "HgN/A
9:00 PM82 °FPassing clouds.15 mph79%29.95 "HgN/A
8:00 PM81 °FPassing clouds.16 mph84%29.92 "HgN/A
7:00 PM82 °FPassing clouds.18 mph79%29.92 "HgN/A
6:00 PM82 °FPassing clouds.17 mph79%29.89 "HgN/A
5:00 PM84 °FPassing clouds.17 mph74%29.89 "HgN/A
4:00 PM86 °FScattered clouds.17 mph70%29.89 "HgN/A
3:00 PM86 °FPassing clouds.16 mph70%29.89 "HgN/A
2:00 PM86 °FPassing clouds.22 mph70%29.89 "HgN/A
1:00 PM86 °FScattered clouds.22 mph70%29.92 "HgN/A
12:00 PM86 °FScattered clouds.23 mph75%29.92 "HgN/A
11:00 AM86 °FScattered clouds.22 mph75%29.95 "HgN/A
10:00 AM86 °FScattered clouds.20 mph75%29.95 "HgN/A
9:00 AM84 °FPassing clouds.21 mph74%29.95 "HgN/A
8:00 AM82 °FScattered clouds.20 mph79%29.95 "HgN/A
7:00 AM81 °FPartly sunny.14 mph84%29.92 "HgN/A
6:00 AM77 °FBroken clouds.16 mph89%29.92 "HgN/A
5:00 AM79 °FPassing clouds.17 mph89%29.89 "HgN/A
4:00 AM79 °FPassing clouds.10 mph79%29.89 "HgN/A
3:00 AM79 °FPassing clouds.17 mph84%29.89 "HgN/A
2:00 AM81 °FPassing clouds.14 mph79%29.92 "HgN/A
1:00 AM81 °FPassing clouds.14 mph79%29.92 "HgN/A
Weather by CustomWeather, © 2016

See weather overviewHow to use our weather pages